Location: Grasslands National Park East Block
(49.0708°N, 106.5295°W)
Time: 22:23:54
(UTC-06:00)

SR - Pass Details

Date: 25 October 2019
Orbit: 574 x 882 km, 66.7° (Epoch: 16 November)

Event Time Altitude Azimuth Distance (km) Brightness Sun altitude
Exits shadow 05:15:48 11° 334° (NNW) 2,419 ? -24.5°
Maximum altitude 05:20:59 38° 41° (NE) 1,313 ? -23.7°
Drops below altitude 10° 05:26:29 10° 109° (ESE) 2,534 ? -22.8°
Sets 05:29:09 0° 117° (ESE) 3,456 ? -22.3°
